Theta_e
354 354 353 354 354 353 352 351 350 350 357 355 351 353 350 350 349 349 349 347 348 345 345 346 343 342 343 345 347 346 345 347 345 346 348 344 341 341 340 338 338 339 340 342 342 342 342 342 340 337 338 340 340 341 342 342 342 343 342 342 343 345 346 345 343 344 345 344 344 344 345 344 344 344 344 344 342 340 339 339 338 339 341 341 342 343 344 344 344 344 343 342 341 340 341 341 340
353 353 353 354 353 354 351 350 355 356 357 351 350 354 350 350 350 351 354 353 350 345 345 345 342 343 344 344 344 345 346 344 342 343 345 342 342 341 339 339 337 338 340 341 342 342 342 342 339 337 338 338 340 341 342 341 341 342 342 342 344 345 346 345 344 345 345 344 343 343 345 344 344 344 344 344 342 340 339 339 338 338 339 340 341 343 343 343 344 343 343 342 341 341 341 340 340
352 353 353 354 353 353 352 351 355 356 353 350 348 354 352 350 355 355 354 351 347 343 346 344 343 345 343 346 346 347 347 345 343 341 344 344 342 340 340 339 337 337 338 339 341 340 341 341 338 338 338 339 340 341 342 342 341 341 341 342 343 345 345 345 345 345 344 342 341 343 345 345 345 344 344 344 343 341 340 339 339 337 337 339 341 342 342 343 343 343 343 342 341 342 341 341 340
353 353 354 354 354 353 355 357 360 358 351 351 347 353 357 354 357 353 347 344 344 345 346 344 344 344 345 349 347 346 346 344 343 340 344 344 340 339 339 338 336 337 339 339 340 341 341 340 339 339 340 340 340 341 341 341 341 340 341 342 343 344 343 344 345 345 343 341 342 344 345 345 345 344 344 344 344 343 341 340 340 338 336 337 340 341 342 343 343 343 343 342 341 342 342 341 341
353 354 354 354 356 354 357 360 363 359 349 353 350 350 354 352 356 350 344 343 343 345 345 344 345 344 345 346 344 346 346 344 343 340 341 341 338 338 338 337 336 338 340 338 339 341 341 339 339 340 340 340 341 340 340 340 340 340 340 342 344 343 344 345 345 344 343 343 344 344 345 345 345 344 343 344 344 343 342 342 341 339 336 335 337 340 342 342 343 343 343 342 341 341 341 341 341
353 354 354 354 357 352 356 357 356 354 348 354 353 349 350 347 351 346 341 342 342 344 344 344 344 344 344 344 344 344 345 344 342 340 338 339 338 337 337 336 336 338 339 338 339 341 340 339 340 341 342 341 341 340 340 340 340 341 340 342 343 344 344 345 345 345 344 343 343 344 345 345 345 343 344 343 343 343 342 342 341 340 338 334 333 338 341 342 343 343 343 343 341 341 340 340 340
353 354 354 355 354 351 358 357 354 354 348 352 352 351 353 346 344 342 342 343 342 343 343 344 343 346 347 345 346 345 345 344 340 339 338 338 337 336 335 335 337 337 337 337 338 341 340 340 342 343 344 342 341 340 341 341 341 342 342 342 343 343 344 345 345 344 343 343 342 344 344 345 345 343 343 343 343 343 342 342 342 342 339 334 328 332 340 343 343 343 342 343 342 341 340 339 339
352 354 353 356 357 356 361 358 354 354 349 349 351 351 351 346 340 343 346 342 343 343 342 343 341 349 349 345 347 346 345 342 338 339 339 338 337 335 334 335 336 335 336 337 337 340 340 341 344 344 344 343 342 342 343 341 341 342 342 342 342 341 342 344 344 343 342 342 341 342 344 344 344 343 343 343 343 343 343 343 343 342 339 331 324 325 336 343 343 343 342 342 342 342 341 339 339
352 354 352 355 359 357 358 358 353 352 355 354 351 350 347 344 340 344 348 343 342 342 343 343 341 349 349 345 348 347 344 340 338 340 339 337 336 334 333 335 335 334 335 336 336 339 340 343 345 344 345 345 343 343 343 342 341 340 341 342 340 338 341 344 344 343 343 342 341 342 343 343 343 343 343 342 342 343 343 343 343 343 338 330 323 320 329 340 343 343 343 343 343 343 341 339 338
353 355 353 356 358 354 352 355 355 354 357 354 351 350 347 346 342 343 346 345 343 343 344 343 343 348 347 346 348 347 344 340 339 340 339 337 335 334 334 335 335 334 335 335 336 338 341 344 344 344 345 345 345 345 344 342 340 340 342 341 340 339 342 343 343 343 343 342 342 342 343 343 343 343 342 342 342 343 342 343 342 342 338 332 327 320 322 335 342 343 343 343 343 343 342 339 337
354 353 353 361 360 352 351 354 358 359 359 355 350 348 347 346 342 343 344 344 344 345 345 344 346 346 346 347 348 348 345 341 340 339 337 337 337 337 336 336 336 336 336 335 336 339 341 343 344 343 345 346 346 345 344 342 340 340 342 343 343 343 343 343 343 342 342 342 342 343 344 344 343 342 342 342 342 342 342 341 340 338 334 330 327 320 319 331 341 343 343 343 343 343 342 341 339
355 354 358 366 359 354 354 356 358 362 363 360 351 346 347 344 344 346 344 345 345 345 344 344 346 346 348 347 348 349 346 343 341 337 338 339 338 338 338 337 337 337 337 336 336 338 340 342 344 344 345 346 345 345 344 343 342 341 341 344 344 343 343 344 343 342 342 341 342 343 344 343 342 341 341 342 342 341 340 338 336 330 323 323 323 319 318 328 340 343 343 344 343 343 343 342 341
355 356 365 364 355 358 359 357 359 361 360 357 350 347 347 343 344 345 343 345 344 345 344 343 344 345 348 348 349 349 347 346 342 339 339 340 339 340 340 338 338 338 337 337 337 337 339 341 343 345 345 346 345 345 344 343 343 342 341 343 344 343 343 344 343 343 342 341 341 342 343 342 341 340 339 340 341 337 333 331 328 321 318 320 320 319 318 324 336 341 343 344 344 344 343 343 340
355 354 364 361 354 361 359 356 361 359 355 355 350 346 348 346 344 343 343 346 344 344 344 343 343 346 349 347 349 349 348 347 344 342 341 340 340 342 344 342 341 339 337 338 338 338 339 340 342 345 345 345 345 345 345 344 343 343 342 343 344 343 343 344 343 343 342 340 341 341 342 342 340 338 338 339 337 331 328 326 323 318 318 319 319 319 318 322 332 339 343 344 343 343 342 342 338
355 353 364 363 355 359 358 358 363 360 356 358 352 345 348 347 344 342 343 347 344 343 344 343 343 344 349 348 348 348 347 347 346 344 342 342 343 345 345 345 344 341 338 338 338 339 340 340 341 343 345 346 345 345 345 344 343 343 343 342 342 342 343 344 343 342 341 340 341 341 341 341 340 338 339 337 332 329 328 327 323 319 319 319 319 319 318 323 332 339 342 342 342 342 342 341 337
351 352 367 366 355 355 358 360 361 358 357 357 349 345 350 346 344 344 342 344 344 343 344 343 342 341 344 346 346 346 346 346 346 345 344 345 345 346 346 345 344 342 339 338 338 339 340 341 340 341 344 346 345 345 344 344 344 343 343 342 341 343 343 343 343 342 341 341 341 340 339 340 340 340 339 335 332 331 330 329 324 321 320 320 320 319 320 326 334 339 341 341 342 342 342 340 338
350 355 368 364 356 357 358 361 358 355 358 355 346 346 353 350 344 343 343 343 344 344 343 342 342 341 341 343 345 345 346 346 346 345 345 345 346 346 346 346 344 341 340 339 338 338 340 340 340 339 342 346 344 344 344 343 344 343 344 342 342 342 342 343 343 342 341 341 340 338 338 339 340 340 338 334 333 331 331 329 324 322 322 323 323 322 324 329 335 339 340 341 342 341 341 340 339
354 362 366 358 359 363 358 360 357 354 358 354 347 347 352 351 344 342 343 342 342 343 342 343 343 343 342 342 344 346 346 346 346 345 344 344 345 346 345 344 343 341 340 339 337 338 340 341 340 340 343 345 343 343 344 343 343 343 343 343 341 341 342 344 343 343 341 340 339 338 337 338 339 339 336 332 329 329 329 327 323 322 322 324 325 326 328 332 336 339 340 340 341 341 341 341 340
355 361 366 360 361 360 352 354 353 352 355 352 348 347 350 349 343 343 344 342 342 344 344 343 344 345 344 344 345 346 346 346 345 344 343 343 344 344 342 342 342 341 340 339 337 338 341 341 341 341 343 345 343 342 343 344 343 343 343 343 342 341 343 343 344 344 342 339 338 337 336 337 339 338 332 327 326 327 328 327 326 325 325 326 328 331 333 335 338 339 340 340 341 341 341 341 341
354 357 366 364 360 358 351 352 352 349 351 351 350 350 350 346 343 343 343 342 342 345 345 344 345 346 346 345 346 346 346 346 345 344 343 343 343 342 341 342 341 341 341 340 339 339 341 340 341 341 343 344 343 341 342 344 343 343 343 343 343 341 342 343 344 344 342 340 337 336 336 336 336 333 328 327 330 332 332 333 333 333 333 334 335 336 337 338 339 339 340 340 341 341 341 342 341
354 356 361 357 355 357 354 354 353 349 349 351 350 349 348 345 344 343 341 344 345 343 344 344 345 345 345 346 346 346 346 345 345 344 343 343 343 342 343 343 342 341 341 341 341 341 341 341 341 342 343 344 343 341 342 343 343 343 342 343 344 343 342 343 344 343 342 340 339 338 337 335 334 330 328 332 336 338 339 340 341 341 341 341 341 341 341 342 342 342 342 342 342 342 341 342 342
354 354 355 353 355 357 355 353 354 352 352 352 349 348 347 344 343 342 342 346 347 342 342 342 341 342 344 346 345 345 345 345 344 344 343 343 343 343 344 344 343 342 342 343 343 342 342 342 342 342 342 343 342 341 342 343 344 343 343 343 344 343 342 342 343 343 342 341 339 338 337 336 332 329 331 335 338 341 342 343 343 344 344 344 344 344 344 344 345 345 345 345 345 344 343 342 342
354 352 352 354 354 355 352 350 351 352 352 350 349 350 347 343 343 341 341 344 343 341 342 342 341 342 343 344 345 345 345 344 343 343 343 343 344 344 344 344 344 344 344 344 344 344 343 343 343 343 342 342 342 341 342 343 343 344 343 343 343 342 340 341 343 343 342 342 339 338 337 333 329 329 333 335 337 341 343 343 343 343 344 344 344 345 345 345 346 346 345 345 345 345 344 343 343
354 354 354 354 351 350 349 347 348 349 349 349 349 351 346 344 346 342 341 342 342 342 342 342 342 343 343 344 344 343 344 343 343 344 344 344 344 344 344 345 345 345 345 345 345 345 344 343 343 343 343 342 342 341 342 343 343 344 343 342 342 341 340 341 343 342 342 341 339 338 334 329 328 329 332 334 339 342 343 343 343 344 344 344 345 346 346 347 347 346 346 345 344 344 344 343 343
354 355 354 353 350 348 347 347 348 347 348 348 349 351 346 345 345 341 341 342 342 342 342 343 343 343 344 343 343 343 343 343 344 344 344 345 345 345 345 345 345 346 345 345 345 344 343 343 343 344 343 343 343 342 342 342 342 343 342 341 342 340 340 341 342 342 342 340 340 337 330 328 328 329 333 338 342 343 343 344 344 344 345 345 346 346 347 347 347 347 346 346 346 346 345 343 342
353 354 353 352 351 349 347 347 347 348 348 347 353 355 348 345 344 341 343 342 342 343 343 344 343 344 344 343 343 343 343 343 344 344 345 346 345 345 346 346 346 346 346 345 345 345 344 344 343 343 343 343 343 342 342 342 342 342 341 341 341 340 340 341 342 342 341 340 339 333 329 329 329 332 338 342 343 343 344 344 344 344 345 346 347 346 347 347 347 347 347 347 346 346 345 344 342
352 352 351 351 351 350 347 346 345 347 347 345 356 359 348 344 346 346 344 341 342 343 343 344 343 343 343 343 343 343 343 343 344 345 346 346 346 346 346 346 346 346 346 346 345 345 345 345 344 343 343 343 342 342 342 342 342 342 341 341 340 339 340 341 341 341 340 339 335 330 330 330 331 335 340 342 343 343 343 343 344 345 345 346 346 346 346 346 346 346 346 346 346 345 345 343 342
352 351 353 351 350 351 349 349 346 348 350 345 351 358 349 345 349 349 343 341 343 343 344 345 343 343 342 343 343 343 343 343 345 345 346 346 346 346 346 347 346 346 346 346 345 345 345 344 343 343 343 343 342 342 342 342 342 342 341 340 339 339 340 341 340 338 339 337 332 330 331 331 332 336 340 342 343 343 342 343 344 345 345 346 346 346 346 346 346 346 345 346 345 345 344 342 340
352 353 359 356 354 354 351 353 349 349 353 345 346 358 357 354 350 346 341 341 343 343 344 344 343 343 343 344 344 343 343 344 345 346 346 346 346 346 346 347 346 346 346 346 346 345 344 343 343 343 343 343 342 342 342 341 341 341 340 339 339 339 340 340 337 337 338 334 332 333 334 334 335 337 340 343 343 342 342 343 344 344 345 345 346 346 346 345 345 345 346 345 345 345 344 342 339
355 354 361 363 360 355 350 353 351 350 352 344 347 355 358 359 350 342 341 341 343 343 345 344 344 343 343 344 344 344 344 344 345 346 346 346 346 346 346 347 347 346 346 345 345 345 343 342 343 343 343 343 343 342 341 341 340 340 340 339 339 340 340 338 336 337 336 333 336 339 339 338 337 338 341 342 342 342 342 343 343 344 344 344 345 345 345 345 346 346 346 346 345 345 344 341 339
359 352 357 360 355 354 350 351 351 353 351 345 349 353 355 356 347 342 340 340 343 343 345 345 344 344 344 345 344 344 345 345 345 346 346 346 346 346 347 347 347 346 346 344 343 343 342 341 342 343 343 342 342 342 340 340 340 340 340 340 339 341 340 338 337 336 334 336 340 341 341 339 338 338 340 341 341 341 342 342 343 344 344 344 345 345 345 345 346 346 346 345 344 344 344 340 338
359 349 355 355 350 357 355 349 349 354 353 345 349 355 358 356 346 343 341 339 342 341 342 343 343 344 344 345 345 345 345 344 345 346 346 346 346 346 347 347 347 346 345 343 342 342 341 340 340 341 341 341 341 340 340 340 339 339 340 340 340 341 340 339 337 334 335 340 341 339 340 339 339 339 339 339 339 339 341 342 342 343 343 343 344 344 345 346 346 346 345 345 344 344 343 340 338
358 348 354 355 350 355 356 351 348 351 353 348 350 355 358 355 346 345 343 339 340 339 339 341 341 342 342 343 343 343 344 345 345 346 346 345 345 347 347 347 347 346 344 343 341 341 340 340 340 339 339 339 339 339 339 339 339 339 339 339 340 340 339 339 335 332 337 340 338 335 336 338 340 340 340 340 340 339 340 341 341 342 342 342 344 344 345 346 346 346 345 345 345 343 343 341 338
355 349 351 354 352 354 356 356 350 349 352 351 353 354 354 354 349 347 344 339 339 339 338 338 338 339 340 340 341 342 343 344 345 346 345 345 346 347 347 347 347 346 344 342 342 341 340 340 339 339 339 339 339 339 339 338 338 338 338 338 339 339 337 337 334 333 338 338 336 334 333 335 338 341 342 342 342 341 340 340 341 342 342 342 343 344 345 345 345 345 345 345 345 344 343 342 339
356 354 353 353 353 353 356 357 351 350 354 354 355 354 354 356 350 348 346 339 338 339 338 339 338 339 339 340 341 342 343 344 344 345 345 345 346 348 347 347 347 345 343 343 342 341 340 340 339 339 339 339 338 339 338 338 338 337 337 337 338 338 335 335 334 336 339 339 338 336 334 336 339 342 345 345 344 343 343 343 343 343 342 342 343 344 344 345 345 345 345 345 345 345 344 342 341
358 360 360 357 355 354 353 354 351 350 354 357 356 354 354 356 352 349 347 341 338 339 339 339 339 340 340 341 342 343 343 344 344 344 345 345 346 348 347 347 346 345 343 343 342 340 339 339 339 339 339 339 338 338 338 337 337 337 336 337 337 335 332 333 335 338 340 340 340 339 337 337 339 342 345 346 345 345 346 345 343 343 342 341 342 343 343 343 344 345 345 345 345 346 344 343 342
356 359 359 358 358 357 353 351 350 350 354 357 355 354 353 356 355 349 347 343 338 339 340 340 341 341 342 342 343 343 343 344 344 344 345 346 347 348 347 347 346 345 344 343 342 340 338 337 338 338 338 338 337 337 337 337 336 336 336 336 335 333 331 331 334 337 340 341 342 342 339 337 338 341 343 344 345 346 346 345 344 344 342 340 340 341 341 341 342 344 345 344 345 345 345 344 343
357 360 358 358 357 355 351 350 351 350 353 355 354 355 352 351 353 348 347 347 341 340 341 341 342 342 342 343 343 344 344 344 344 345 345 346 347 348 347 347 345 345 344 342 341 340 337 337 338 338 337 336 335 334 335 335 334 334 333 333 333 331 330 331 334 337 339 341 342 342 341 338 338 340 341 342 344 345 346 346 345 344 342 339 339 339 339 340 342 343 344 343 344 345 344 344 343
360 358 356 357 354 352 351 350 352 351 353 355 353 354 351 348 349 347 346 348 346 343 342 342 342 342 342 343 343 344 344 345 345 345 345 346 347 348 348 347 345 345 344 342 341 340 338 337 338 338 336 335 333 333 332 332 332 332 331 331 331 331 332 334 337 339 340 342 341 341 341 340 339 340 341 342 344 345 345 346 345 344 343 342 340 338 339 341 342 342 342 342 343 344 344 344 343
359 357 356 356 353 353 354 353 351 351 352 353 353 353 352 351 351 348 345 347 349 347 344 342 342 343 343 343 344 344 344 345 345 345 345 346 347 348 347 347 346 345 345 343 341 341 340 339 339 339 336 333 332 331 331 331 331 331 330 330 331 334 336 338 340 340 340 340 339 339 340 340 340 341 342 344 345 345 345 345 345 344 344 343 341 340 340 341 341 341 342 341 342 343 344 344 343
354 354 356 360 357 353 353 354 351 350 350 350 352 352 353 354 353 352 349 348 349 349 346 344 342 343 343 343 343 343 344 344 344 345 346 346 347 347 347 347 346 345 344 343 342 341 340 341 341 340 337 335 333 332 331 332 332 333 332 332 333 335 337 338 339 339 338 339 338 338 338 338 339 340 342 344 344 345 344 344 344 345 344 343 342 341 341 341 341 342 342 341 341 342 343 345 344
351 351 354 359 357 351 351 353 350 350 350 350 351 350 352 356 353 353 354 353 354 351 348 346 344 343 342 343 343 342 344 343 344 345 344 346 347 347 347 347 346 345 344 343 342 341 341 341 342 342 340 338 338 339 337 335 335 337 337 337 337 337 338 338 337 337 337 338 338 337 337 338 338 339 340 341 342 342 342 342 344 344 344 343 342 342 342 343 343 343 342 341 340 340 341 344 345
349 350 352 354 354 351 351 353 351 351 350 349 351 349 350 354 353 352 354 356 358 354 350 348 345 344 343 342 343 342 343 343 344 344 344 346 347 346 346 347 346 345 345 344 343 342 341 342 342 342 341 340 341 343 341 339 338 340 341 340 339 339 338 337 337 338 339 340 339 338 337 337 339 340 340 340 340 340 340 341 343 343 342 342 342 342 343 343 343 343 342 341 341 340 340 343 345
349 349 351 355 354 352 351 352 353 350 349 349 351 350 348 352 354 352 351 354 356 355 354 351 347 345 344 343 343 343 343 344 344 344 344 345 346 346 346 346 346 345 345 345 345 343 341 341 342 342 342 341 342 343 342 341 341 341 342 341 341 340 339 339 340 341 343 343 343 341 339 338 339 340 340 341 340 340 340 340 342 342 341 341 342 342 342 342 342 342 341 342 342 341 341 343 345
349 346 350 353 351 350 351 353 352 349 349 350 351 350 348 351 355 353 352 352 352 352 352 350 348 347 345 343 343 343 343 344 344 344 344 345 345 345 345 346 346 345 345 345 345 344 342 341 341 342 343 342 342 343 342 342 342 342 343 343 343 342 341 341 342 343 344 345 345 345 343 341 340 341 340 340 340 340 341 341 342 343 342 341 342 342 341 341 342 342 342 344 344 343 342 343 344
348 345 347 347 346 350 353 354 353 351 352 350 349 349 347 351 356 353 351 351 349 349 348 347 347 348 347 344 343 343 344 343 344 344 344 345 345 345 345 345 345 345 345 346 346 345 343 341 340 340 341 342 342 343 343 342 343 343 344 344 344 343 342 342 343 344 345 345 346 346 345 344 343 342 341 340 340 341 342 343 342 343 343 342 342 342 341 342 344 345 345 346 346 345 344 343 343
346 347 347 346 350 353 354 355 351 348 352 349 346 349 347 348 356 356 351 351 350 347 346 346 345 347 348 346 344 343 344 344 344 344 344 345 345 345 346 345 345 345 346 346 346 345 344 343 341 340 340 340 341 342 343 343 343 343 344 344 344 344 344 344 344 344 345 346 346 346 345 345 343 341 340 340 340 343 345 343 342 342 343 343 342 343 344 345 346 347 347 347 347 346 345 343 343
348 353 349 346 351 351 350 353 350 347 350 348 345 349 347 346 357 363 356 353 353 349 347 346 344 345 347 346 346 344 343 344 344 344 344 345 345 345 346 346 346 345 345 346 346 345 345 344 343 341 340 339 339 340 343 343 343 343 344 344 344 344 344 344 344 344 345 346 347 347 346 346 345 342 341 342 342 344 345 344 343 342 342 342 343 343 345 346 347 348 347 347 345 344 344 343 343
348 350 350 348 348 348 350 351 349 348 345 344 347 350 348 347 353 358 355 353 352 349 345 344 342 343 346 346 347 345 344 344 344 345 345 345 346 345 346 346 345 346 345 346 346 345 344 344 344 343 340 338 338 338 340 342 342 342 343 344 343 344 345 344 345 345 346 347 347 347 347 346 346 345 343 343 344 345 346 346 345 343 342 342 342 343 344 346 347 348 348 348 346 345 345 344 342
347 346 346 349 349 350 354 350 343 344 344 344 348 350 349 347 347 351 352 349 349 348 345 345 343 342 344 345 346 347 346 345 344 345 344 345 345 345 346 346 345 346 345 345 345 345 344 344 345 344 341 339 337 337 337 339 340 342 342 343 344 345 345 345 344 345 345 347 347 347 347 346 346 346 345 344 345 346 346 346 345 344 342 342 342 343 344 346 347 346 347 348 347 347 348 347 345
346 344 341 346 352 351 349 347 343 343 346 346 346 347 350 349 345 349 350 347 349 350 348 348 346 344 343 343 345 347 346 345 345 345 345 345 345 345 345 346 345 345 345 346 345 345 344 344 344 345 343 340 338 336 336 336 338 341 341 343 345 345 345 345 344 344 345 346 347 346 346 347 346 347 346 345 346 347 347 346 345 345 343 342 342 343 344 345 346 346 347 347 346 346 347 348 347
339 336 337 339 347 349 338 338 347 347 346 349 346 347 353 351 347 348 348 348 349 349 349 349 348 346 345 344 345 346 346 346 346 345 345 345 345 346 345 345 346 345 345 346 345 345 344 344 345 345 343 340 338 337 335 335 336 339 342 343 344 345 345 345 344 344 345 345 346 346 346 347 347 347 347 347 347 348 348 348 348 347 345 343 343 344 345 346 346 347 347 346 345 345 346 346 346
338 335 340 337 338 351 342 334 344 344 340 344 344 347 354 350 345 350 352 353 353 352 350 349 349 347 346 346 346 346 346 346 346 345 346 345 345 345 345 345 345 345 346 346 346 345 345 345 345 345 344 341 339 337 335 335 335 338 341 343 343 344 344 344 344 344 344 344 344 345 346 346 346 347 346 346 346 347 348 348 349 349 348 344 345 347 347 348 349 348 347 345 343 344 344 343 343
339 337 341 332 327 342 342 336 343 341 337 344 344 348 353 346 344 354 357 355 357 357 353 349 349 349 347 347 346 346 347 345 346 346 345 346 346 345 345 345 345 345 346 345 346 345 345 345 346 345 344 341 338 336 335 335 335 336 337 339 340 342 343 343 344 344 345 344 344 345 346 346 345 345 344 344 345 348 348 348 349 349 348 347 348 350 350 350 350 349 347 345 343 343 343 342 342
331 332 330 325 324 330 331 332 341 340 338 344 346 346 348 347 351 360 360 359 359 359 356 353 351 350 349 348 346 346 346 346 345 345 345 346 345 345 345 345 345 346 346 346 346 346 345 345 345 346 344 341 337 335 334 334 334 334 335 335 337 339 341 343 343 344 344 344 343 344 345 344 343 344 343 342 344 348 349 349 349 349 349 349 349 350 350 350 350 349 348 346 344 344 343 343 343
324 327 328 329 333 332 329 330 334 338 340 342 342 342 347 352 356 360 361 358 355 356 359 356 352 351 351 350 348 346 346 346 346 345 345 345 345 345 345 345 346 345 345 346 345 345 346 345 346 346 345 343 340 337 335 333 333 333 333 334 335 337 339 340 342 342 342 342 342 343 343 344 343 343 343 341 342 347 350 349 349 349 349 349 350 350 351 351 351 350 349 347 346 346 345 344 344
327 331 329 330 332 329 329 330 330 335 342 344 340 339 350 357 353 354 356 351 350 354 356 353 350 351 352 350 350 348 347 346 346 345 345 345 345 345 346 345 346 345 345 346 346 346 346 345 346 346 346 345 344 340 337 333 331 332 332 333 334 334 336 337 338 339 339 339 339 340 341 342 342 342 342 342 342 345 349 349 350 350 349 349 350 351 351 352 352 352 351 349 347 346 346 346 346
334 338 331 331 333 329 330 330 330 336 341 344 341 340 352 356 347 348 350 345 347 350 350 350 350 350 350 350 350 349 349 347 346 346 345 345 345 344 345 345 345 345 345 345 346 346 346 345 346 346 346 346 345 342 339 336 334 332 331 331 332 333 334 335 335 335 336 336 336 337 338 339 339 338 340 341 343 345 348 349 350 350 350 350 350 351 351 351 352 352 352 351 349 348 348 349 349
Wind_Speed
6 5 2 2 2 2 2 2 0 2 2 2 2 1 1 1 2 2 2 1 2 6 8 11 20 15 5 4 6 6 5 4 4 3 2 8 20 21 17 17 16 15 14 13 13 12 11 10 10 10 11 12 12 12 11 10 9 9 9 9 8 8 11 11 12 13 14 14 13 12 12 11 12 12 12 12 11 11 11 12 12 13 12 11 11 10 10 11 11 11 11 11 12 12 12 13 13
4 3 1 2 2 2 2 1 2 2 4 3 2 1 2 2 1 1 3 4 2 7 10 17 21 9 5 9 10 7 6 3 2 5 9 18 24 20 18 17 16 15 14 14 13 13 12 10 9 10 11 11 11 11 10 9 9 8 8 8 8 8 10 11 12 13 13 13 13 12 12 12 12 12 12 12 11 11 11 11 11 12 11 11 11 10 10 11 11 11 11 11 11 11 11 12 13
2 2 2 2 2 1 1 2 2 2 4 3 1 2 1 1 1 3 4 3 4 12 13 19 17 6 7 9 5 3 3 2 6 13 16 21 22 21 19 16 16 14 14 14 13 13 12 11 10 10 11 11 10 10 9 9 8 8 8 8 8 8 9 11 12 12 12 12 12 12 12 12 12 12 11 11 11 11 10 10 11 12 11 11 10 10 10 11 12 11 10 10 10 10 10 11 12
2 2 3 3 2 1 1 2 2 3 3 2 1 3 1 2 4 2 1 3 9 15 16 17 10 4 5 5 4 4 4 4 11 18 20 21 21 22 20 17 16 14 14 13 13 13 12 11 11 11 11 10 10 9 8 8 8 8 8 8 8 8 9 10 11 11 11 11 11 11 11 12 11 11 11 11 11 10 10 10 11 11 11 11 10 10 10 11 11 11 11 10 10 10 10 10 11
2 2 3 2 2 1 1 2 1 3 2 3 2 3 2 1 3 2 5 8 8 12 16 14 6 5 7 6 3 2 4 8 15 18 21 21 20 21 20 18 16 14 14 12 13 13 12 12 12 12 11 10 9 8 8 8 8 9 8 8 8 9 9 9 10 10 10 10 11 11 11 11 11 11 10 10 10 9 9 9 10 11 11 11 9 10 10 10 11 12 11 11 11 10 11 11 11
4 3 2 1 1 1 1 3 2 3 1 3 2 2 3 2 4 7 9 10 8 10 13 11 8 9 9 8 8 5 5 8 17 19 21 22 20 21 19 18 16 14 13 12 13 12 13 13 12 12 11 10 9 8 8 8 8 8 8 8 8 8 9 9 10 10 9 10 10 10 10 10 11 10 9 10 9 8 8 9 10 10 10 10 10 9 9 10 11 11 11 12 11 11 12 12 11
4 2 1 0 1 2 2 3 2 1 1 3 2 2 3 2 6 9 8 8 9 8 9 12 14 12 6 4 7 6 1 5 17 20 20 21 20 20 19 17 15 14 13 12 12 12 13 13 12 11 10 10 9 9 8 8 8 8 8 8 9 8 8 9 10 10 9 9 10 10 10 10 10 10 9 9 9 8 8 8 9 10 10 9 10 9 9 11 11 11 12 12 12 12 12 12 11
4 2 1 1 1 2 3 3 1 1 0 1 1 1 2 3 7 6 4 4 5 6 11 15 14 8 3 2 5 4 2 7 16 19 19 19 19 19 18 17 15 14 13 12 12 12 12 12 12 11 10 9 9 9 8 8 9 9 8 8 9 9 8 9 10 9 9 9 10 10 10 10 10 9 8 8 8 7 7 8 8 9 10 9 10 10 9 11 12 11 11 12 12 12 12 12 12
3 2 2 2 2 3 3 2 1 1 2 2 1 0 3 5 5 3 5 6 7 9 11 10 6 5 5 8 8 4 5 9 16 17 18 18 18 18 17 16 14 13 13 12 12 12 12 12 11 10 10 9 10 9 9 9 9 10 9 9 9 9 9 10 10 9 9 9 9 10 9 9 10 9 8 7 7 7 7 8 8 9 9 8 9 9 9 10 12 11 11 12 12 11 11 13 13
1 1 1 1 3 4 3 2 1 1 2 2 2 2 4 3 5 4 6 7 9 10 7 5 5 10 10 8 6 5 7 12 17 18 17 18 17 17 16 15 12 12 12 12 12 12 13 12 10 10 10 10 10 10 9 8 9 10 11 11 10 10 11 10 10 9 9 8 9 9 9 9 10 9 8 7 7 7 7 8 8 8 8 7 7 8 9 10 11 11 12 12 11 11 11 12 13
0 0 0 2 3 3 3 1 1 2 4 2 1 2 4 6 9 6 7 8 8 10 10 9 10 15 12 6 5 6 9 13 16 18 18 17 15 15 15 14 13 11 11 12 12 13 13 13 11 10 10 10 10 10 9 7 8 10 10 11 11 11 11 11 11 10 9 8 8 9 8 9 9 8 8 7 7 7 7 7 7 6 6 6 7 8 10 11 11 11 12 12 12 12 11 11 12
1 1 2 3 3 2 3 2 1 4 4 2 1 3 5 10 11 6 8 9 9 11 8 7 12 14 7 3 7 8 10 13 15 16 16 15 14 13 13 13 13 11 11 11 12 13 12 13 12 10 10 9 9 9 8 7 7 9 10 10 11 11 11 10 10 9 8 8 7 8 8 8 7 7 7 7 7 7 7 6 6 5 7 9 10 10 11 12 11 11 11 12 12 12 11 11 11
1 1 2 2 1 2 3 2 1 3 2 1 2 2 6 8 7 10 11 9 10 9 2 8 18 13 5 4 10 12 12 14 14 14 14 14 14 13 12 12 12 12 11 11 11 12 12 13 12 10 9 8 9 9 9 8 7 8 9 10 10 11 11 10 9 8 8 7 7 7 7 7 7 7 7 7 7 7 7 7 7 8 10 12 12 11 12 13 12 10 10 11 11 11 11 11 11
3 0 2 2 1 2 2 2 1 2 0 2 2 1 5 4 5 12 13 9 6 5 5 14 20 11 6 7 10 15 14 14 13 12 13 13 13 12 10 10 10 11 10 11 11 11 12 12 12 10 9 9 8 8 9 8 7 7 8 9 10 10 11 11 9 8 7 7 6 6 7 7 7 7 8 8 8 8 8 9 10 11 13 13 13 12 13 14 13 11 10 10 10 11 11 11 12
5 2 2 2 1 1 1 1 2 4 2 2 1 0 4 3 8 12 11 9 2 6 13 17 15 6 7 9 10 21 17 15 14 11 13 12 12 10 8 8 9 11 11 11 11 11 11 12 12 10 10 9 9 8 9 9 8 8 8 8 9 10 10 10 10 9 8 7 6 6 7 7 7 8 9 9 8 9 9 10 11 12 13 13 13 13 13 14 13 12 11 10 11 12 12 12 12
5 3 3 3 1 1 1 1 2 3 2 3 2 2 4 4 11 11 6 7 8 15 12 11 11 3 7 13 12 23 19 16 15 12 13 12 12 9 8 8 8 11 12 11 10 11 11 11 11 10 10 9 9 8 8 9 8 8 8 8 9 10 10 10 10 9 8 7 7 7 7 8 8 9 9 9 9 9 10 10 11 13 13 13 13 13 14 14 13 12 11 11 12 12 12 12 12
4 3 3 2 1 2 2 3 3 2 1 3 3 3 4 4 9 9 5 9 15 17 5 7 10 5 7 14 15 23 19 17 16 13 13 12 12 10 9 9 9 12 12 12 11 11 11 11 10 10 10 9 9 9 8 9 9 9 9 9 10 10 11 11 10 10 9 8 8 7 7 8 8 9 10 10 9 10 10 11 12 13 13 13 13 13 14 14 12 11 11 11 11 11 11 11 11
3 2 3 2 2 2 3 4 3 2 1 3 4 4 4 3 9 11 7 10 16 12 3 8 7 2 9 15 18 22 18 18 16 14 14 12 13 11 11 11 11 12 12 13 11 11 10 10 10 10 10 9 10 9 9 9 9 10 10 10 10 10 10 11 11 10 9 9 9 8 7 7 8 9 10 11 11 11 11 12 13 13 14 14 14 14 13 13 12 12 11 9 9 9 9 9 9
1 2 2 1 3 2 3 4 4 2 1 3 5 6 4 5 13 14 7 8 12 8 5 9 8 7 13 17 21 20 18 19 16 14 13 13 14 12 12 12 12 12 13 13 12 12 10 10 10 10 11 10 10 10 10 10 10 10 10 11 11 10 10 11 11 11 10 9 9 8 8 8 8 10 12 13 14 14 14 14 14 15 15 15 14 14 14 13 12 11 9 8 7 6 6 6 7
0 2 2 2 3 1 1 1 4 3 1 1 3 7 6 8 16 15 10 9 7 6 9 10 12 15 18 22 23 20 19 18 15 15 13 13 13 11 11 11 11 11 12 12 12 12 11 11 11 11 11 11 11 10 11 11 10 10 10 11 10 11 11 11 11 10 9 9 9 9 8 8 9 11 14 16 17 17 16 16 16 16 16 16 15 14 13 12 11 9 7 5 4 3 3 4 5
0 1 1 2 0 2 3 3 3 4 3 0 2 7 6 10 15 16 16 10 1 8 16 13 16 22 24 26 23 20 20 17 16 15 13 13 12 11 10 9 9 9 10 10 11 11 11 12 12 12 12 12 12 11 11 11 11 11 10 10 10 10 11 12 11 10 10 9 9 9 9 9 9 13 16 17 18 18 17 16 16 16 15 15 14 12 11 9 8 6 4 3 2 2 2 2 2
1 1 1 1 1 1 4 3 2 3 4 1 2 5 5 10 13 20 22 10 7 16 20 16 18 24 26 26 24 22 20 18 17 15 14 13 11 11 9 9 9 9 9 9 9 9 10 12 12 12 12 12 12 12 12 11 11 11 11 11 10 11 11 11 11 11 10 9 9 9 9 9 10 14 17 17 18 17 16 15 13 13 12 11 10 9 8 7 6 5 3 2 1 1 2 1 1
1 2 2 5 3 1 5 5 4 1 3 2 1 2 2 9 9 20 25 13 13 18 19 17 18 22 24 24 23 22 21 19 17 14 14 12 11 10 9 9 9 9 9 9 9 9 10 11 12 12 12 12 12 12 12 12 12 11 11 11 11 11 11 12 11 11 10 9 9 9 9 9 12 16 17 17 17 16 14 12 10 9 9 8 8 7 7 6 6 5 4 2 1 1 2 1 1
2 2 1 6 7 6 6 7 9 5 6 7 3 2 3 10 7 16 18 8 10 14 17 18 19 22 23 23 22 21 19 18 15 13 13 11 11 10 8 7 7 8 8 9 9 9 10 10 11 12 11 11 12 12 12 12 12 12 12 13 11 11 11 12 11 10 10 10 10 10 10 11 14 17 17 16 16 15 13 11 9 8 7 8 7 7 7 7 7 7 5 4 2 2 1 1 1
2 1 1 4 6 7 5 3 5 5 8 8 3 2 3 9 9 14 11 6 9 15 18 18 21 24 22 22 21 20 19 18 15 14 13 12 12 11 9 7 8 8 7 8 8 9 9 9 11 11 11 12 12 13 13 13 13 12 13 13 12 11 11 11 11 11 10 11 11 11 12 13 16 18 17 16 15 13 11 9 8 7 7 7 7 7 7 8 8 7 6 5 5 5 4 3 2
3 3 3 5 4 5 4 2 2 3 8 8 4 5 3 4 8 8 5 10 15 17 20 21 24 24 23 22 21 20 19 18 16 14 14 13 13 13 11 9 8 7 7 8 8 8 9 9 10 11 10 12 12 13 13 13 13 13 14 15 13 12 11 11 11 11 11 12 12 12 13 15 18 18 17 14 12 11 10 9 8 8 7 6 6 6 6 7 7 7 6 6 6 6 5 4 3
8 9 9 9 5 4 4 2 3 5 9 10 5 4 8 3 4 3 5 16 19 19 22 23 24 24 24 23 21 21 18 16 15 14 15 15 15 13 11 10 9 8 8 8 8 8 8 9 10 10 11 12 12 13 13 13 13 14 15 16 15 13 12 11 12 12 12 12 12 13 15 17 18 18 16 13 11 10 9 8 8 7 7 6 6 5 6 6 5 6 5 5 5 6 6 5 4
13 13 9 8 6 6 6 2 1 2 6 9 6 3 10 8 2 5 14 21 21 23 25 25 25 23 24 23 22 22 19 16 15 15 15 13 12 12 11 9 8 9 8 7 7 7 8 9 10 10 11 12 13 13 13 13 14 16 17 17 16 14 13 12 13 13 13 13 14 15 17 17 18 17 16 13 10 9 8 8 7 6 6 6 5 5 5 5 4 5 5 5 5 7 7 5 4
9 8 4 3 3 5 7 3 2 1 2 4 6 4 5 4 7 8 22 24 23 25 26 27 25 24 25 24 24 22 20 18 18 17 14 12 10 10 9 7 7 8 7 7 7 7 8 9 10 11 12 13 12 13 14 14 14 17 18 18 17 16 15 14 14 14 13 14 16 18 18 18 18 17 15 13 11 9 8 7 6 6 5 4 4 4 5 4 4 4 4 4 5 8 8 6 4
4 3 3 2 4 3 5 5 3 2 2 2 3 2 3 4 7 11 24 25 25 25 26 28 26 26 26 25 24 22 21 20 19 18 14 13 11 9 8 7 7 7 7 7 7 7 7 9 11 11 12 13 13 14 15 14 15 17 19 18 18 16 16 15 15 14 15 17 18 18 17 17 17 17 15 13 11 10 8 8 7 6 4 3 3 3 4 4 3 2 3 3 4 7 8 7 5
1 2 2 2 1 2 5 5 3 3 1 1 1 1 4 4 4 10 23 25 27 26 25 27 26 26 26 25 25 23 22 21 19 17 15 14 12 10 8 7 7 8 8 7 7 7 7 8 11 12 12 13 13 14 15 15 16 18 19 19 18 17 17 17 16 16 17 19 18 17 17 17 17 16 15 13 12 10 9 9 8 6 5 4 3 3 3 4 2 0 1 1 3 5 7 7 5
2 1 2 2 1 2 6 4 3 2 1 0 1 2 3 4 6 6 17 23 26 25 24 24 24 25 25 25 25 23 22 21 20 18 16 14 11 9 8 7 8 8 8 7 7 8 8 9 10 11 12 12 14 15 15 16 17 18 19 19 18 17 17 18 17 18 20 19 17 17 17 17 16 16 14 13 12 11 10 9 8 7 5 5 4 3 3 3 2 1 2 1 2 3 5 5 4
3 1 2 2 1 1 4 3 2 3 1 0 1 2 1 4 6 4 13 21 23 22 21 22 23 23 24 25 25 24 23 22 22 20 17 13 11 9 7 6 7 8 8 7 7 7 9 10 11 11 12 12 14 15 16 17 17 18 19 19 18 17 18 18 19 21 21 19 17 16 15 15 15 14 13 13 12 11 11 10 8 6 6 6 5 4 3 3 3 3 3 2 1 3 4 4 3
3 1 1 2 2 1 1 2 2 3 2 2 2 2 2 4 4 1 12 22 20 19 20 21 22 22 24 24 24 24 24 24 23 20 17 13 11 10 7 5 6 8 8 8 6 7 9 11 11 12 12 13 14 16 17 17 18 19 18 18 17 18 19 20 21 21 20 18 16 14 14 13 14 13 12 12 11 11 10 8 7 5 6 6 6 6 5 5 4 4 4 2 2 3 3 3 3
3 2 1 2 1 2 2 2 1 1 1 2 2 2 4 5 4 4 8 22 21 18 21 21 21 22 23 24 24 24 25 25 22 20 17 14 11 10 8 6 7 8 9 9 8 8 10 11 12 13 13 14 15 16 17 18 19 19 19 18 19 20 21 21 22 22 20 17 14 13 13 13 13 13 12 10 10 9 8 6 6 5 6 7 8 7 7 6 6 5 5 3 2 3 3 3 3
5 5 3 2 2 2 2 1 1 1 1 2 3 2 2 3 3 6 1 18 23 19 20 20 19 21 22 23 24 25 25 24 21 19 18 14 13 12 10 8 7 8 8 9 9 9 11 12 13 13 14 14 16 17 18 19 20 20 20 20 21 22 22 22 22 22 20 17 13 12 13 14 13 13 12 10 9 7 6 6 6 5 5 8 9 9 8 8 7 7 6 5 3 3 3 3 3
5 4 3 3 1 1 1 1 0 2 0 1 2 2 2 3 3 7 8 10 21 18 16 17 19 21 23 24 24 25 25 22 20 20 19 16 14 13 11 9 9 9 9 10 11 11 12 13 13 14 14 15 16 17 19 19 21 21 22 22 23 23 23 22 23 22 19 16 12 10 12 14 13 13 11 10 8 6 6 6 5 5 5 8 10 10 9 10 9 8 7 6 5 4 3 3 2
4 4 3 3 1 1 1 1 1 1 1 1 1 1 1 3 4 8 11 3 14 17 17 18 20 21 23 24 24 24 23 21 21 21 19 17 16 15 14 12 10 10 11 11 11 11 13 14 13 14 15 16 17 17 18 20 20 20 21 22 23 23 23 22 21 20 18 16 11 9 11 13 12 12 10 8 7 6 7 7 6 6 6 7 10 11 10 10 10 9 8 8 6 5 5 4 3
3 3 3 2 1 1 1 1 1 1 1 1 2 2 1 2 4 9 12 6 5 12 18 20 22 22 22 24 24 24 23 22 22 21 21 19 18 17 16 14 12 11 11 11 12 12 13 15 15 14 15 16 17 17 18 19 19 19 19 20 21 21 21 19 18 17 16 15 11 9 11 12 12 11 8 8 7 7 7 7 7 7 6 7 8 10 11 10 10 10 10 9 7 6 5 5 4
2 3 3 2 3 2 0 1 2 2 1 1 2 2 2 1 4 8 11 9 4 5 13 17 22 24 24 25 25 25 25 24 23 23 22 21 20 19 19 17 14 13 13 12 13 14 14 15 15 15 16 17 17 17 17 18 18 19 19 19 20 19 18 17 16 15 14 13 11 10 11 11 11 9 8 8 7 7 7 7 7 7 7 7 8 9 10 10 10 11 10 10 8 6 6 6 5
2 4 4 3 5 4 1 2 2 2 1 2 3 2 3 2 4 5 6 5 4 3 8 12 17 22 23 24 25 26 26 25 24 25 24 23 23 21 20 19 16 15 15 13 13 14 15 15 15 15 16 17 17 17 17 18 18 19 19 20 20 19 17 16 16 15 14 12 11 10 10 10 9 8 8 9 8 8 8 7 7 7 8 8 8 9 10 10 11 11 10 9 8 7 6 6 6
2 4 7 5 7 8 5 5 3 1 1 0 2 1 3 3 5 7 3 2 3 3 4 10 14 18 20 21 24 26 25 24 24 25 25 25 24 22 21 21 19 16 15 13 12 14 15 15 15 15 17 17 17 17 18 18 18 18 19 20 20 19 18 18 17 15 14 12 10 10 9 9 9 8 8 9 10 10 9 8 8 8 8 8 9 9 9 10 10 10 9 8 8 8 7 7 6
1 5 7 8 9 10 8 6 3 1 2 2 1 2 2 3 4 7 3 2 5 4 4 7 12 17 19 22 25 25 25 25 24 25 26 25 24 24 23 23 21 17 15 14 13 14 15 15 15 15 16 17 16 16 18 19 19 19 19 19 19 18 17 17 16 14 12 10 9 9 9 9 8 8 8 9 10 10 10 9 8 8 8 9 9 10 10 10 10 9 8 7 7 8 8 8 7
2 4 8 12 10 10 8 5 2 2 2 1 0 2 1 3 4 6 6 5 6 5 6 7 11 16 19 22 25 26 26 25 25 27 27 26 26 25 24 23 21 18 16 15 15 14 15 16 15 15 16 17 17 17 19 20 21 20 20 19 18 17 15 14 13 12 10 9 8 8 8 9 8 8 8 9 9 9 9 9 9 9 8 9 9 10 10 10 10 9 8 8 7 8 8 8 8
2 3 10 10 9 9 7 4 2 0 2 1 2 1 0 3 4 1 5 6 8 8 8 8 11 16 19 23 25 27 27 26 26 28 28 28 27 25 24 22 21 19 17 16 15 14 14 15 16 16 16 17 17 18 19 21 22 21 20 18 17 15 14 12 10 9 9 8 7 7 7 8 8 8 8 9 9 9 9 9 9 9 8 8 9 10 10 10 9 9 8 8 7 7 7 8 9
4 10 12 9 9 8 5 4 2 1 3 1 4 3 1 4 4 1 3 6 9 10 8 8 12 17 20 23 26 27 28 27 27 28 29 28 27 25 24 22 21 20 18 17 16 15 14 14 16 17 17 17 18 19 20 21 22 21 19 17 16 14 13 11 10 9 8 8 7 7 7 7 8 9 9 10 10 9 10 9 9 9 9 8 9 9 9 9 8 8 8 7 7 6 6 7 8
11 11 10 8 6 5 4 2 1 3 2 3 4 5 3 2 4 2 3 5 6 7 6 8 12 16 19 23 26 28 28 28 29 30 30 29 27 26 25 24 22 20 20 20 19 17 15 15 15 17 17 17 19 20 21 21 21 21 19 17 16 14 13 12 11 10 9 9 8 7 7 7 8 9 9 10 10 10 10 10 9 9 9 9 9 9 8 8 8 8 7 7 6 6 6 7 8
8 5 6 5 4 3 3 3 3 3 2 5 3 3 4 1 4 3 4 4 3 5 7 9 12 16 20 22 25 27 29 29 30 32 32 30 29 28 27 27 25 23 22 21 21 19 17 16 15 16 17 18 19 21 22 22 22 22 20 19 17 15 13 12 10 10 10 9 8 8 8 8 8 9 10 11 10 11 11 10 9 9 9 9 9 9 8 8 8 8 7 7 6 6 6 7 8
5 5 5 5 3 2 2 3 2 1 3 3 0 3 2 4 6 5 6 6 5 6 7 9 14 20 23 23 24 25 27 29 31 32 33 32 31 30 29 28 27 26 24 22 21 20 18 17 16 16 17 18 20 22 24 24 23 23 22 21 18 15 14 12 11 10 10 10 9 9 9 8 8 9 9 10 10 10 10 9 9 9 9 9 10 9 9 9 9 9 8 8 6 5 6 7 8
5 5 4 4 3 2 1 2 1 2 3 3 1 2 1 4 5 4 6 6 5 6 8 9 11 18 23 24 23 24 24 28 31 33 33 34 33 32 30 29 29 28 25 23 22 20 18 18 18 17 17 18 19 21 24 25 25 24 23 21 18 16 16 15 14 12 11 11 11 10 9 8 8 8 8 8 8 9 10 9 8 8 8 9 9 9 9 9 10 10 10 9 8 7 7 7 7
3 2 4 4 4 4 3 3 2 2 2 2 1 1 2 2 3 3 4 4 4 4 5 6 8 13 20 23 23 23 23 25 30 33 34 35 35 33 32 30 30 28 27 25 24 22 20 19 18 18 17 18 20 21 23 25 25 25 23 21 19 19 18 17 16 15 13 12 12 11 10 9 9 8 7 7 7 8 9 9 8 8 8 8 8 8 8 9 10 10 10 10 10 9 9 8 8
1 1 4 1 3 4 3 2 4 4 1 0 0 2 4 4 3 3 2 2 2 3 4 4 5 8 14 20 23 24 24 24 28 32 34 35 35 34 33 32 31 29 28 28 26 24 22 20 19 19 18 18 20 22 23 24 25 25 24 22 21 20 19 19 18 17 15 14 13 13 11 9 9 8 7 7 7 8 8 8 8 8 8 8 8 7 7 8 8 9 10 10 9 9 9 9 9
1 1 2 4 3 6 5 1 1 3 2 1 1 3 4 3 3 3 1 1 2 2 3 4 5 6 9 14 19 24 27 26 26 30 33 35 35 35 35 34 33 31 30 29 28 26 23 21 20 20 19 20 21 22 23 24 24 25 24 24 23 21 20 19 18 17 16 15 14 14 13 11 10 9 8 7 7 8 7 7 8 8 8 9 8 7 7 7 8 9 10 10 9 9 9 10 10
5 2 5 4 1 4 4 2 3 3 1 2 1 3 4 2 2 4 3 2 3 3 3 4 6 7 10 12 14 19 24 27 26 27 30 33 35 36 36 35 34 32 31 31 29 27 25 23 21 20 20 21 22 22 22 23 24 24 25 24 23 22 20 18 17 17 16 16 15 15 15 14 12 10 9 8 8 9 8 8 8 8 9 9 9 8 8 8 8 9 10 11 10 10 10 10 10
5 4 4 3 2 0 1 2 1 1 1 3 3 3 3 3 3 3 2 3 5 4 3 3 4 6 9 12 13 15 19 23 25 26 26 29 32 35 36 36 35 33 32 32 31 29 27 25 23 21 20 20 21 22 21 22 23 24 25 24 23 22 21 20 19 18 18 18 17 16 16 15 13 12 11 10 10 11 10 9 9 8 8 9 10 9 9 9 10 10 10 11 11 11 12 11 11
3 2 2 2 2 3 2 2 2 2 2 2 3 3 3 5 5 3 5 5 4 4 3 2 4 5 6 9 12 15 18 20 23 26 27 27 29 32 35 36 36 35 34 33 32 32 29 26 24 22 20 19 20 21 20 20 21 23 24 24 23 23 22 22 21 21 21 19 18 18 17 15 14 12 11 10 11 12 11 10 10 9 9 9 9 9 9 10 10 11 11 11 11 12 12 12 11
2 2 1 1 1 2 2 1 1 3 3 3 1 1 5 5 3 4 5 5 3 4 3 1 4 6 6 6 8 13 17 20 22 24 25 26 27 30 33 35 35 34 34 34 34 33 32 29 26 24 22 20 20 21 21 20 20 21 22 23 24 24 23 22 22 22 21 20 19 18 16 15 13 12 11 10 11 13 13 12 11 11 11 10 10 10 10 10 11 10 11 12 12 13 13 13 12
4 3 3 3 2 3 3 1 2 1 3 3 4 2 6 5 1 2 4 3 1 3 3 1 2 5 6 6 5 8 14 19 21 21 21 22 24 28 31 33 32 33 34 34 34 34 34 32 28 26 25 23 21 21 21 20 20 20 21 22 23 23 23 23 22 22 21 20 18 17 16 14 13 11 10 11 11 13 13 13 12 12 12 12 12 12 12 12 12 11 11 12 13 14 14 13 12
Wind_Direction
119 111 95 63 356 343 322 290 125 357 76 65 338 47 298 283 143 112 84 134 100 167 171 150 155 153 149 158 147 117 93 141 159 130 173 155 142 148 154 157 160 158 155 147 145 141 138 136 135 147 147 145 145 145 143 143 141 137 134 131 135 132 123 126 132 131 132 131 128 124 121 122 120 118 115 106 97 93 94 91 91 91 88 84 79 81 90 94 97 102 103 101 99 100 100 100 101
101 92 42 38 356 333 327 344 71 10 55 60 336 92 285 329 85 138 170 192 155 172 166 148 153 148 124 137 125 94 65 63 154 129 130 142 143 149 154 157 160 158 158 152 148 144 142 140 139 146 145 145 146 147 146 146 147 141 134 131 134 130 124 128 133 133 132 127 125 125 125 125 122 120 115 106 98 93 93 90 88 88 88 83 78 81 90 94 97 101 102 103 105 103 99 98 100
64 49 17 24 358 332 350 26 85 70 72 83 327 273 284 47 225 237 207 223 146 157 154 147 152 134 112 119 105 90 79 68 137 131 131 146 147 149 154 156 158 158 158 156 151 147 145 142 143 143 142 145 148 149 149 148 147 140 135 133 130 123 125 131 132 132 130 125 125 129 131 127 123 121 116 107 102 99 97 92 87 85 87 85 81 85 92 95 98 100 99 98 101 103 98 98 100
44 15 360 355 350 347 34 54 116 107 101 130 98 283 280 174 217 266 175 109 126 144 143 143 139 110 118 101 77 87 99 127 143 140 143 152 151 150 153 155 157 159 157 157 153 148 145 144 144 143 142 146 146 146 146 145 142 138 137 133 126 125 130 134 132 131 130 128 129 132 131 125 121 119 115 110 106 106 103 98 93 90 88 88 85 83 89 96 98 98 95 93 95 100 101 101 103
12 336 335 337 345 334 77 71 93 88 115 163 123 285 314 158 175 106 109 102 117 139 140 143 122 92 101 76 48 105 134 147 148 148 149 151 152 152 153 154 155 157 157 155 154 148 145 146 145 143 142 142 141 139 138 138 138 138 138 134 130 133 134 135 134 130 129 130 132 133 128 121 117 116 116 111 107 108 107 104 100 96 92 94 93 84 89 99 99 96 93 92 93 96 100 102 104
357 316 307 319 333 344 74 71 69 61 176 168 113 293 341 64 131 127 111 90 97 132 139 133 117 107 90 62 50 95 140 154 156 154 149 149 154 153 151 152 153 155 155 152 153 151 147 146 144 142 139 138 137 134 134 133 133 135 140 140 135 135 134 136 136 130 129 130 132 130 123 116 113 114 115 111 109 108 107 104 102 100 95 96 102 95 93 97 97 95 92 92 92 93 93 95 99
351 292 285 329 320 8 82 88 103 53 236 168 139 283 330 66 137 133 111 87 91 111 128 124 124 111 77 67 61 71 74 183 160 151 147 149 154 153 151 152 152 154 152 150 149 150 147 144 144 142 138 137 133 128 129 127 128 134 137 139 136 135 136 135 133 133 132 128 130 127 119 112 108 111 113 113 112 109 108 106 106 104 99 97 103 104 100 98 97 94 93 93 92 89 86 87 92
332 250 216 99 23 28 86 82 119 199 225 194 208 250 11 125 152 138 103 94 102 104 120 124 123 103 55 108 91 81 101 167 154 144 148 150 153 153 153 153 153 152 150 149 147 149 147 146 147 143 140 134 127 126 124 120 124 129 129 132 133 139 142 135 132 135 133 129 129 126 118 112 109 112 113 111 109 110 110 107 107 106 104 100 99 105 109 105 103 100 97 95 91 87 85 86 88
298 222 208 91 68 53 75 45 9 225 303 322 299 357 68 136 165 135 94 86 113 118 124 130 114 105 103 89 97 125 134 154 147 142 150 151 155 155 154 154 152 152 150 152 150 149 148 149 152 147 143 135 128 128 126 120 124 129 128 127 128 140 145 138 137 135 132 130 128 125 120 113 110 112 110 106 105 105 106 106 105 102 103 104 101 107 117 113 109 108 102 94 91 90 88 88 88
263 188 204 96 84 70 68 14 334 334 299 312 314 26 47 157 164 130 111 97 121 119 118 134 114 121 117 86 93 142 144 149 146 146 154 153 156 155 154 153 151 153 153 158 154 152 151 152 156 154 149 143 138 133 128 123 129 133 132 131 132 140 142 140 141 136 133 131 129 127 124 117 112 112 110 106 103 101 102 105 104 101 103 112 115 114 124 122 114 110 103 99 96 96 94 93 91
54 306 129 86 69 84 108 62 348 317 290 311 302 54 47 163 145 113 107 107 122 118 120 117 112 117 105 76 100 138 146 151 155 153 153 152 151 150 152 152 153 159 159 161 157 156 155 154 158 160 157 151 144 136 130 127 134 138 137 136 137 140 139 142 144 140 137 134 132 129 123 115 112 114 113 108 105 105 101 101 102 104 112 128 132 125 130 130 124 115 106 105 103 101 101 101 96
18 309 62 94 75 124 152 119 3 314 308 12 116 69 76 152 142 132 130 121 128 125 132 127 132 127 91 68 126 148 154 155 163 155 150 145 143 145 152 155 159 165 165 164 160 159 159 157 159 163 162 153 146 141 135 133 136 139 140 140 140 142 139 140 141 141 142 138 135 131 122 112 110 114 116 115 107 105 99 99 105 112 123 131 134 131 135 137 133 122 109 108 106 104 104 104 96
18 234 75 95 91 130 128 123 334 337 342 11 178 62 92 150 154 157 139 120 133 130 170 151 144 132 81 110 140 159 161 161 164 154 149 142 142 145 153 160 165 170 168 168 165 163 164 163 161 162 162 156 154 148 141 142 142 140 144 146 144 143 140 139 140 144 144 139 137 130 121 110 110 114 116 116 106 104 103 104 109 117 126 129 131 133 138 141 139 129 115 110 107 106 107 103 94
23 306 89 95 80 107 110 128 129 91 308 284 232 30 99 137 169 159 134 118 132 131 154 151 146 127 109 127 152 172 168 168 165 154 152 143 147 147 151 161 167 173 172 173 170 168 170 168 164 163 164 160 160 151 146 151 150 147 150 150 143 141 143 142 142 145 146 141 139 131 120 112 114 116 115 114 108 108 108 107 110 119 126 128 129 133 139 142 141 133 121 113 109 110 110 105 98
15 360 90 100 62 91 120 168 141 134 201 253 240 138 95 96 166 161 135 131 118 143 146 149 148 114 158 168 177 180 173 173 168 155 152 146 151 150 153 161 168 176 176 178 175 175 176 174 170 169 169 162 161 156 156 159 156 154 153 148 142 146 148 142 143 146 147 146 147 138 124 119 117 116 115 115 112 110 109 107 109 117 123 126 128 132 139 141 139 132 123 117 113 112 111 108 106
4 5 74 83 91 153 163 173 138 138 219 233 223 173 90 78 163 159 136 141 128 145 143 153 162 31 192 184 174 175 172 172 170 160 158 155 160 159 166 171 176 179 180 183 180 182 182 181 179 177 176 168 166 165 167 164 160 160 152 148 148 152 149 142 148 146 147 153 155 147 133 129 124 119 117 115 114 112 111 110 111 115 118 120 123 129 136 137 133 128 125 122 114 109 107 109 110
339 5 67 80 136 177 172 169 170 152 223 229 226 185 101 71 153 143 132 147 137 148 138 170 187 328 204 182 163 168 169 171 174 172 168 166 169 170 178 184 185 183 184 187 187 188 185 185 186 185 184 177 175 174 174 170 166 164 154 153 153 155 152 148 153 147 150 160 159 152 141 136 127 121 119 118 117 116 113 112 112 112 112 114 118 126 133 132 129 126 127 124 114 106 103 106 108
330 37 84 115 164 192 185 177 182 140 145 210 207 177 129 103 149 140 127 136 137 144 119 159 186 324 180 171 159 166 168 172 178 178 174 172 176 180 185 188 190 190 190 191 193 191 187 188 187 191 192 186 183 180 180 178 174 167 159 159 154 155 156 154 155 152 156 161 158 153 142 136 129 124 122 122 121 117 113 111 111 110 110 112 116 123 128 128 126 124 123 117 109 103 101 100 101
12 84 74 181 195 224 199 173 176 149 124 186 196 187 173 158 157 151 137 140 139 127 108 140 139 124 156 161 162 170 171 175 181 182 180 176 181 187 191 193 194 196 196 196 198 193 188 191 192 195 200 194 188 186 186 184 179 172 166 165 157 156 161 160 158 156 159 161 158 152 141 135 131 127 124 124 121 115 112 110 109 108 108 108 111 117 121 124 123 121 115 107 101 95 90 83 81
7 99 54 240 229 240 285 231 214 222 194 114 166 185 194 178 168 164 152 152 153 144 144 142 139 143 154 161 167 174 175 181 185 187 187 184 190 196 199 204 204 203 199 199 200 195 190 193 196 198 202 197 191 190 191 190 183 178 175 170 161 160 166 167 164 162 161 159 158 152 143 137 130 127 125 125 121 117 113 110 108 107 107 106 108 111 114 117 117 116 109 97 83 68 59 53 53
13 110 144 245 253 73 355 328 259 248 224 318 123 161 180 177 174 167 148 139 223 203 180 167 161 161 161 166 172 177 179 185 188 193 194 190 195 197 204 211 212 209 202 204 203 195 190 192 196 198 201 199 196 194 194 195 186 180 180 174 168 168 172 173 170 166 161 158 158 151 144 138 130 129 131 130 126 121 117 114 111 109 107 107 108 108 109 109 108 106 97 78 46 21 7 10 10
37 354 216 359 48 83 353 347 277 258 208 245 119 131 162 167 168 166 156 154 214 209 196 184 175 170 167 170 174 179 183 187 190 194 195 195 196 193 201 203 202 204 204 210 207 196 190 191 192 196 201 199 200 198 195 197 190 183 181 177 177 177 180 179 172 165 161 160 159 151 144 140 137 138 140 137 130 125 121 117 112 108 107 107 105 103 100 96 92 89 87 77 342 272 261 259 278
81 354 31 42 53 55 6 20 358 269 132 30 110 65 155 156 161 174 171 181 208 207 196 183 178 173 170 171 174 181 186 189 191 191 190 191 191 190 193 196 198 200 202 207 205 200 195 192 192 195 199 198 198 198 195 194 191 187 183 182 183 184 184 179 170 164 163 161 156 149 146 146 148 150 149 143 135 130 124 118 111 105 102 97 90 86 82 77 75 77 83 92 147 223 223 232 254
122 4 31 55 56 52 31 36 30 51 65 17 330 325 193 161 160 181 184 206 211 199 188 178 175 172 171 173 176 182 185 188 190 189 190 189 191 194 192 196 200 199 203 203 201 203 202 200 197 196 196 195 195 195 195 192 188 188 187 185 185 186 181 173 166 161 161 159 153 148 149 153 157 158 155 146 139 133 126 118 110 101 93 86 82 79 79 78 76 78 80 87 89 75 31 314 310
145 97 148 74 57 55 53 69 47 43 32 15 11 21 185 178 169 177 197 223 191 182 179 175 172 172 175 177 179 184 187 190 192 193 195 196 200 202 201 203 202 200 204 201 201 204 206 206 201 200 194 191 194 195 195 190 186 190 189 184 184 186 176 166 161 156 157 157 152 151 152 156 161 162 157 148 141 134 127 121 112 103 94 88 86 85 89 88 85 84 81 79 71 57 35 355 345
176 142 117 88 62 58 62 174 164 51 22 21 50 32 20 169 163 170 197 185 176 174 174 173 172 174 179 181 183 186 190 192 193 197 198 199 203 205 208 209 207 201 200 202 205 205 206 207 203 203 195 190 196 197 195 188 184 189 186 182 184 183 172 162 157 156 159 157 154 154 153 157 161 160 155 149 143 138 133 129 120 110 103 100 97 96 100 97 94 91 84 73 58 46 31 10 9
141 119 99 87 81 65 62 150 151 72 33 23 64 34 1 34 154 192 171 167 171 169 167 171 173 177 183 186 188 188 192 194 194 199 201 204 207 210 213 212 211 203 198 201 204 204 207 209 203 199 193 192 197 197 194 186 182 184 182 181 182 177 169 162 158 159 160 158 156 153 151 154 157 157 156 154 151 147 145 140 130 120 116 117 113 110 110 100 95 93 83 67 49 36 22 10 14
131 119 94 70 83 65 41 90 107 62 31 19 73 54 358 9 310 210 163 165 172 168 166 172 177 181 186 188 192 194 196 197 198 203 205 208 210 215 219 217 214 206 203 201 202 205 207 208 202 194 190 191 194 194 190 184 179 179 179 180 177 172 170 165 161 161 161 159 154 148 148 151 155 158 160 160 159 158 158 154 145 138 132 130 124 123 122 106 95 88 70 53 36 24 11 8 24
126 117 99 18 47 52 14 19 14 15 51 42 80 48 349 348 296 204 163 166 173 169 170 175 180 185 188 192 196 198 200 201 205 210 212 215 218 221 223 222 219 213 206 198 202 210 206 201 195 188 186 188 190 189 187 182 175 175 178 177 173 171 171 168 165 165 163 160 152 147 149 153 157 161 163 163 165 167 170 172 170 166 155 144 137 134 130 116 107 84 52 34 23 18 4 360 25
109 69 94 28 11 12 351 1 18 42 76 82 87 13 261 263 284 187 164 166 169 168 173 179 184 188 190 194 198 202 204 206 209 213 217 219 222 224 222 221 217 215 207 196 199 208 205 194 188 185 183 185 186 185 183 179 173 174 177 174 170 171 172 171 171 170 165 158 153 151 153 158 163 166 169 171 174 176 180 184 188 190 185 176 160 143 132 122 116 78 34 12 16 21 2 347 3
77 16 51 61 19 288 327 353 35 66 91 213 149 215 229 271 304 175 169 170 169 169 178 183 186 189 192 195 200 206 209 212 216 217 218 220 223 221 216 215 209 206 204 195 191 199 200 191 187 182 179 181 182 182 179 176 175 175 175 173 171 173 174 174 174 170 164 159 157 157 159 163 168 173 176 180 185 187 189 192 197 203 210 213 198 165 140 128 132 220 310 333 15 27 5 345 351
41 21 333 360 158 262 320 349 47 76 164 190 125 178 229 278 299 204 180 178 175 175 181 187 189 190 194 197 202 209 213 217 220 220 219 219 221 216 207 206 204 200 195 188 184 188 187 186 187 180 175 176 176 177 174 173 175 174 173 173 174 176 176 174 171 167 163 162 164 165 166 168 172 176 181 187 193 195 196 198 201 210 223 228 213 191 171 158 175 230 244 278 6 27 13 351 346
2 73 255 281 147 279 319 339 44 66 109 240 123 145 216 274 291 247 191 187 183 181 184 189 192 192 195 200 204 208 210 211 214 217 217 217 217 212 203 199 200 197 189 183 182 181 176 178 183 178 174 172 171 173 172 170 172 172 172 173 174 176 174 170 168 167 166 169 173 171 170 173 177 181 184 190 196 199 201 201 206 220 233 232 221 213 213 207 213 226 240 274 344 12 17 356 338
318 57 266 256 162 162 287 309 14 46 79 201 113 105 233 270 324 325 195 195 190 187 191 193 195 196 198 201 203 206 207 207 212 216 213 212 209 203 198 191 194 196 186 179 176 173 171 172 176 174 173 172 170 171 170 168 169 170 172 173 174 173 169 167 168 170 172 177 178 176 174 176 182 185 187 191 194 197 200 203 217 237 245 239 227 225 231 232 234 235 239 261 330 349 9 5 345
197 174 210 252 199 178 241 299 311 7 34 175 138 137 239 274 331 360 192 196 197 195 197 198 199 199 200 202 203 205 207 209 215 216 211 207 201 196 192 185 188 193 185 176 171 168 167 168 172 172 172 173 172 172 170 168 169 171 173 172 173 171 168 169 172 174 178 181 179 177 176 178 183 187 189 194 197 197 201 216 236 252 260 245 230 231 240 245 251 250 244 247 298 326 349 12 5
162 170 152 159 209 228 229 307 245 197 67 164 187 176 231 276 287 340 259 194 198 202 200 200 200 200 200 201 203 204 206 211 213 211 208 204 198 193 189 186 187 190 186 177 171 167 164 165 168 169 171 174 174 174 172 170 171 173 174 174 173 172 171 174 176 180 183 183 181 182 182 181 182 188 195 201 204 207 218 234 244 258 265 243 229 232 244 252 260 261 255 252 268 298 317 344 358
123 129 123 123 163 258 262 26 142 201 249 223 217 180 230 277 259 321 327 197 193 201 200 198 198 197 199 199 200 203 206 210 208 206 206 204 198 194 192 191 189 188 186 182 176 168 164 162 164 167 169 173 175 175 174 173 173 173 175 176 175 175 176 179 181 185 187 184 184 189 190 188 186 192 199 204 208 221 235 243 247 255 256 237 228 234 246 257 264 264 263 264 265 274 288 300 309
98 128 143 105 115 243 327 329 181 189 302 287 352 334 240 336 308 305 321 233 189 197 194 196 197 195 197 198 200 203 204 205 204 202 204 205 200 197 196 195 194 193 190 187 181 170 166 162 161 165 167 170 173 174 174 173 174 175 176 176 176 178 180 182 185 187 188 189 193 195 195 197 197 199 204 208 217 231 238 248 253 253 247 235 233 240 251 260 263 265 267 268 267 273 283 289 290
99 123 144 119 193 156 72 269 152 113 292 308 23 355 30 2 274 284 302 296 208 196 195 199 197 193 195 197 200 200 198 201 203 202 204 206 203 199 199 197 197 197 192 189 185 177 171 166 164 166 167 168 169 170 171 170 170 172 173 174 175 178 180 182 186 190 193 198 202 197 195 201 202 201 206 213 223 233 239 249 253 250 244 240 242 244 250 257 262 267 271 270 264 268 280 284 290
140 137 135 175 195 159 129 237 126 84 320 62 65 6 345 261 245 274 283 277 271 197 197 203 201 197 197 200 203 200 198 201 203 203 205 206 204 202 201 198 195 193 192 192 193 187 179 173 170 168 167 168 167 166 165 165 166 167 170 173 175 179 182 185 190 196 199 200 202 199 196 198 198 197 204 214 225 234 240 248 248 246 246 248 248 244 247 254 261 268 272 272 263 260 272 273 279
237 172 168 184 168 151 138 154 122 53 39 82 86 26 309 253 225 253 276 273 272 221 192 200 205 201 199 200 202 202 203 204 204 205 207 207 206 203 201 199 195 192 191 193 199 199 191 183 178 173 170 169 167 166 167 168 169 170 172 176 181 185 188 191 194 195 194 195 197 196 193 194 195 197 207 218 227 234 240 247 243 242 250 253 247 243 248 253 260 267 270 269 264 260 265 267 270
302 221 195 170 139 135 126 124 114 33 351 225 110 96 278 264 220 231 273 309 261 260 199 197 204 203 200 197 199 202 206 208 209 209 209 209 208 205 202 201 199 196 192 191 200 205 200 193 185 180 177 174 172 171 173 176 176 177 179 181 184 186 188 190 191 190 190 191 191 190 191 195 199 204 214 225 232 237 243 246 242 241 248 250 245 243 246 252 259 266 267 266 265 261 257 262 269
307 240 173 132 123 129 134 134 116 123 236 270 130 140 270 297 245 223 221 236 239 262 256 216 205 206 205 201 200 201 204 208 211 212 211 211 210 207 204 203 204 202 196 189 195 204 204 199 192 186 183 181 178 176 176 180 180 181 183 183 184 185 186 188 186 186 185 183 185 190 196 201 205 213 222 230 234 239 242 243 243 243 243 243 245 246 246 251 258 262 265 264 264 260 250 253 263
241 235 131 123 127 128 128 117 94 167 183 278 79 119 64 293 259 216 182 202 238 244 248 236 214 210 211 208 204 202 205 210 212 211 212 214 213 211 208 207 208 206 199 192 193 199 201 201 199 193 188 185 184 182 179 179 181 183 184 184 186 189 189 185 182 182 180 180 188 195 203 206 210 219 226 233 237 238 239 240 244 245 241 240 245 247 245 250 254 255 259 258 258 256 248 249 255
256 140 110 115 118 115 109 92 79 159 104 45 239 155 65 270 277 252 163 198 235 231 228 232 221 214 212 213 209 205 208 213 216 215 215 216 216 216 214 212 211 208 204 200 197 196 195 196 198 198 195 192 191 190 186 182 182 185 187 189 193 195 193 188 188 192 193 197 202 205 213 215 219 224 227 233 236 236 235 236 242 243 241 242 244 244 244 247 252 255 259 258 255 252 251 253 254
124 108 96 96 98 99 88 92 136 52 49 268 224 183 160 276 278 11 140 205 228 224 220 223 224 219 214 214 213 209 209 212 216 219 219 220 221 220 218 215 214 212 209 206 204 199 192 190 194 198 198 197 197 198 194 190 188 189 192 195 199 200 200 200 205 213 217 220 222 223 226 227 229 228 227 230 231 232 234 236 240 241 241 242 241 240 242 246 253 260 261 255 252 254 256 256 254
123 104 92 92 78 69 64 60 116 59 8 281 241 180 132 306 272 211 181 217 222 209 208 217 224 224 219 215 214 212 212 212 214 218 220 223 223 220 218 216 216 217 214 210 208 206 199 194 195 197 199 199 201 203 202 198 196 196 198 200 203 205 207 212 218 224 229 232 230 226 226 229 230 228 227 229 229 230 233 236 237 237 238 240 240 238 238 243 249 253 254 250 250 257 259 255 249
113 98 104 97 39 22 35 352 21 68 277 282 277 153 123 259 262 238 230 250 237 201 204 210 212 218 221 217 212 212 214 214 214 216 217 219 219 218 216 216 217 217 216 214 213 212 207 204 202 200 201 202 202 204 206 205 204 204 204 205 206 206 209 215 221 228 233 234 230 224 222 224 227 227 227 230 229 227 228 230 233 235 236 239 243 242 240 241 241 243 249 252 255 262 264 256 246
89 108 108 91 41 14 6 332 9 129 250 278 193 127 119 248 249 259 258 254 244 227 225 223 215 213 216 215 211 211 214 214 213 213 214 216 217 218 218 217 217 218 219 218 218 217 213 212 212 207 205 206 205 207 208 208 210 211 209 208 207 207 211 216 221 227 232 232 228 224 224 227 232 234 233 233 229 225 229 234 237 238 240 242 245 246 245 242 240 246 253 254 254 261 266 260 251
137 136 119 117 104 69 313 279 309 266 272 305 165 151 275 278 269 268 261 261 256 244 244 243 231 218 215 214 212 210 211 213 212 211 212 215 218 221 222 220 218 218 221 221 222 221 218 216 218 217 213 211 211 211 210 210 212 213 212 210 209 211 216 221 224 227 228 229 227 225 228 234 240 243 243 240 233 232 240 243 243 244 244 244 246 248 248 245 246 253 259 259 256 258 263 264 258
167 143 116 141 151 144 187 215 204 216 272 334 3 181 200 225 256 246 244 276 288 269 255 242 236 227 219 216 213 209 208 210 212 211 212 215 219 222 224 223 221 221 222 222 223 224 222 221 222 223 220 216 216 215 213 212 211 211 211 211 213 217 222 227 228 228 230 231 232 233 234 238 243 244 244 242 238 239 243 242 243 248 249 249 250 251 250 250 254 261 266 265 260 257 261 263 262
245 113 102 165 193 144 128 170 169 154 138 301 256 245 219 210 258 263 233 268 295 302 292 254 230 222 215 214 214 210 208 208 210 211 213 215 219 222 224 224 223 223 224 224 225 225 225 224 225 227 225 220 220 220 217 215 213 212 212 212 215 219 225 229 229 228 231 235 240 240 239 243 248 247 245 243 240 237 237 239 244 252 252 248 249 251 253 257 263 267 268 267 261 261 263 263 263
130 121 176 230 188 120 108 152 98 90 136 229 237 270 292 322 308 305 7 23 326 307 293 267 243 223 213 214 214 212 210 209 209 211 213 216 218 221 224 225 225 225 226 227 228 228 228 227 226 227 226 222 222 222 221 218 216 215 215 217 219 222 225 228 228 229 232 239 246 245 243 245 250 253 253 250 244 236 235 240 246 254 252 243 241 246 251 258 264 266 265 264 262 264 266 264 263
118 185 205 203 142 82 102 128 21 45 205 273 295 258 296 341 305 313 354 337 278 264 253 264 252 233 229 226 220 217 216 213 212 213 214 216 218 221 223 225 226 227 229 231 231 232 232 231 230 229 227 222 220 222 223 222 221 221 222 223 225 227 229 231 232 234 237 244 251 250 247 249 253 260 261 256 243 234 233 239 245 249 244 238 239 247 254 258 264 266 265 264 263 263 263 262 262
122 181 167 127 143 149 91 132 142 124 215 289 303 285 268 211 229 288 299 237 238 247 251 265 258 242 241 239 230 223 220 218 217 216 215 215 217 220 222 224 226 227 230 233 233 234 234 234 233 233 231 226 222 222 223 224 225 225 227 229 230 231 234 236 237 239 243 249 254 252 249 251 255 259 264 260 245 235 234 239 243 245 240 239 246 255 262 265 268 270 271 269 266 264 265 265 266
61 73 56 61 136 162 150 145 162 153 158 241 300 328 272 229 215 215 241 247 231 223 234 260 281 280 268 257 242 226 218 219 220 219 219 219 219 222 224 225 226 227 230 232 233 234 235 235 235 234 232 228 224 223 223 226 227 228 230 231 231 232 234 238 241 243 246 250 253 250 248 251 253 255 260 259 245 238 238 239 242 246 246 248 254 260 266 271 273 274 273 272 268 266 267 267 267
83 58 19 350 69 132 150 87 82 126 146 189 218 293 266 250 198 192 250 273 237 200 199 269 303 315 314 289 261 237 223 219 220 220 220 222 222 223 225 226 227 228 230 231 233 234 235 236 236 236 233 229 226 224 223 225 227 229 231 232 232 231 233 236 240 243 245 246 247 247 247 251 251 250 255 256 248 242 242 242 244 247 249 250 251 256 262 268 273 274 274 271 267 264 264 265 265
153 157 174 173 146 126 127 332 313 104 125 163 164 219 267 261 190 227 266 278 210 153 142 168 301 326 332 325 297 255 236 224 220 220 222 226 227 225 224 225 227 228 229 231 232 234 235 235 235 237 236 233 228 225 223 224 226 228 230 231 232 232 232 234 237 240 241 242 243 244 246 249 247 246 251 254 251 247 245 244 244 247 250 250 250 254 259 263 266 269 271 270 266 262 261 260 261